Location: Anjeux
(47.8815°N, 6.2076°E)
Time: 18:59:39
(UTC+00:00)

ISS - Pass Details

Date: 01 October 2021
Orbit: 417 x 423 km, 51.6° (Epoch: 27 October)

Event Time Altitude Azimuth Distance (km) Brightness Sun altitude
Rises 19:52:33 0° 288° (WNW) 2,367 1.3 -26.6°
Reaches altitude 10° 19:54:55 10° 274° (W) 1,501 -0.1 -27.0°
Enters shadow 19:56:09 17° 257° (WSW) 1,138 -1.1 -27.2°
